Theta_e
316 314 315 317 318 319 321 321 324 323 321 322 321 323 320 319 319 318 319 318 318 318 317 318 323 327 322 320 324 325 327 334 336 333 337 333 329 331 330 331 330 328 329 330 331 328 327 332 334 335 335 335 334 333 331 328 322 319 317 316 313 313 313 313 312 311 311 310 315 320 321 325 329 328 329 331 331 328 322 315 312 319 322 320 323 323 321 323 324 322 316 314 311 310 311 312 313
315 314 315 317 319 320 321 323 329 328 322 319 321 323 319 317 317 321 323 320 320 320 318 319 322 324 320 320 322 322 326 328 326 328 331 329 331 332 331 331 329 329 329 329 330 328 329 333 335 335 335 334 334 332 331 326 320 318 318 315 313 313 314 313 312 312 312 310 317 324 323 323 328 329 330 330 330 328 324 316 312 319 322 320 322 323 324 325 324 322 319 318 316 312 310 311 311
314 315 316 318 321 320 322 324 329 329 321 320 328 326 318 317 321 325 321 318 320 320 320 320 321 321 320 322 323 322 324 323 323 327 329 331 332 331 332 331 330 331 329 329 330 328 329 333 335 335 334 334 333 332 329 324 319 318 318 315 313 313 314 314 313 313 312 312 317 323 324 324 325 327 328 329 329 328 326 320 312 317 322 323 323 324 327 328 325 320 320 324 321 314 310 311 311
314 316 318 320 322 323 330 332 332 331 322 322 328 325 323 324 324 323 316 317 322 320 320 319 321 321 320 325 325 324 323 322 325 328 330 332 331 331 331 331 331 331 331 330 330 329 330 334 335 334 333 333 333 331 327 322 320 319 318 316 314 314 314 314 313 314 313 313 317 319 323 325 325 327 328 328 328 327 326 323 315 316 321 322 323 325 327 327 325 320 321 325 320 313 310 312 312
314 317 319 320 323 324 330 328 326 326 320 323 325 322 329 329 323 318 315 320 322 318 318 319 324 323 322 325 324 324 325 326 328 329 331 332 331 330 330 331 332 331 331 329 329 329 331 334 334 334 333 333 333 330 325 322 319 319 318 317 316 315 314 315 313 314 314 313 314 316 322 325 326 328 327 326 326 324 322 320 314 314 320 321 322 324 326 326 325 322 320 320 315 311 310 311 312
314 318 319 320 321 320 324 321 321 324 322 325 322 321 328 323 318 315 315 320 319 317 318 319 323 323 324 325 324 322 324 328 330 331 331 331 330 330 330 331 331 331 330 329 327 329 332 334 333 334 333 332 331 327 323 320 320 319 319 317 317 316 315 315 314 314 314 314 312 313 320 324 325 324 324 324 323 320 318 316 311 313 318 319 320 322 325 327 326 324 321 318 312 310 310 310 312
315 319 319 320 320 318 327 325 326 329 320 318 318 321 323 316 314 315 317 318 318 316 317 319 321 323 324 325 325 323 324 328 329 331 332 331 330 330 330 330 331 331 329 328 326 329 333 332 333 333 332 332 329 325 322 320 320 320 319 318 317 317 315 315 314 314 314 315 314 312 314 318 320 320 321 322 320 317 315 313 309 313 316 314 317 319 323 324 323 322 318 314 309 309 311 312 314
317 320 319 325 325 323 330 323 326 328 315 311 313 318 318 314 314 316 317 316 317 317 317 320 320 320 322 323 325 324 322 325 329 331 331 331 331 330 330 330 330 330 329 327 326 330 332 331 332 332 332 331 326 324 322 320 321 320 320 319 318 317 316 315 315 315 315 315 315 313 311 312 313 314 316 316 314 313 312 311 308 312 314 311 313 317 320 320 319 319 314 310 308 309 311 313 314
318 320 319 325 326 326 330 322 320 320 317 316 314 316 315 314 316 316 316 315 316 317 318 320 318 317 320 322 323 323 321 322 328 330 331 331 331 331 331 330 329 328 327 325 326 330 332 331 331 331 331 329 326 324 322 320 321 321 320 319 319 318 317 316 315 315 315 316 315 314 312 310 309 308 310 310 309 309 308 308 307 310 313 310 309 313 317 317 318 317 313 310 311 311 310 312 314
317 319 318 324 329 323 323 321 319 318 318 316 313 316 315 314 316 315 316 316 315 317 318 319 318 317 320 323 323 322 320 321 326 331 332 332 332 332 332 331 329 327 325 324 327 330 331 331 330 330 330 328 326 325 323 321 321 321 321 320 320 319 318 317 316 315 315 316 316 315 314 310 308 306 306 306 306 307 307 307 307 308 309 308 308 310 315 318 318 316 314 313 313 312 311 311 314
319 318 319 327 331 323 320 322 323 326 322 315 314 315 316 315 315 314 314 315 315 316 318 319 318 318 321 322 322 322 319 319 325 330 331 332 332 332 333 332 329 328 326 324 327 331 331 330 330 330 330 329 328 327 325 323 321 321 322 321 321 320 319 318 317 316 316 316 317 316 314 312 309 307 306 306 306 306 306 306 306 307 309 311 314 314 316 318 318 317 315 313 313 313 311 311 313
317 320 332 335 328 323 324 323 323 331 330 322 318 316 316 315 315 315 314 315 315 315 317 318 318 319 322 321 321 320 318 318 323 329 331 331 333 332 333 333 330 329 327 326 327 330 331 331 330 330 330 330 329 328 327 325 322 321 322 322 322 321 320 320 318 317 316 317 317 317 315 314 311 309 308 307 307 307 307 307 308 311 314 317 318 319 319 318 318 316 315 313 313 313 311 310 312
317 321 335 329 320 322 322 320 320 326 328 324 318 315 317 315 315 316 314 315 314 315 317 317 318 318 322 321 319 319 318 317 321 328 330 330 334 333 333 333 331 329 329 327 326 328 330 331 330 330 329 329 330 329 327 327 325 322 321 322 322 323 322 321 319 318 317 317 318 317 316 315 313 312 311 310 310 310 311 312 313 315 318 319 320 320 320 319 317 315 314 314 313 313 313 311 312
318 321 329 323 317 323 322 319 319 320 324 324 316 314 317 315 316 315 315 316 314 316 317 317 318 318 320 320 318 318 316 316 320 326 329 330 333 333 333 333 333 330 329 328 327 326 327 329 329 329 329 329 329 328 328 327 326 324 322 321 322 323 323 322 321 320 319 318 318 318 318 316 314 314 314 314 314 314 315 316 318 319 320 320 321 321 320 320 319 317 315 314 314 314 314 314 313
319 319 328 328 318 319 320 319 321 323 326 323 316 314 316 316 315 314 315 317 316 315 316 317 318 317 318 320 319 317 315 315 319 324 327 328 332 334 334 333 333 332 331 329 328 327 326 326 327 327 327 327 327 327 328 327 327 326 324 322 322 322 323 323 322 321 320 319 319 319 319 317 316 315 316 317 316 317 317 319 320 321 321 322 322 322 321 321 320 319 316 314 314 314 315 315 314
320 318 326 328 318 317 317 316 319 323 323 317 313 315 316 316 315 315 315 315 315 315 315 317 318 317 316 318 319 317 315 313 317 323 325 327 330 333 334 333 334 333 332 330 330 329 328 327 326 326 326 326 327 327 327 327 327 327 326 323 322 322 323 323 323 323 322 321 320 319 319 318 318 317 317 318 318 318 318 320 321 321 322 322 322 322 322 322 322 321 318 316 314 314 315 316 315
318 322 329 326 321 320 318 317 319 322 323 314 310 314 316 315 314 314 315 315 316 315 315 316 316 317 316 317 319 318 315 313 315 319 323 325 328 332 334 334 333 333 333 332 331 332 331 331 330 329 328 327 327 326 326 327 326 326 327 325 323 323 323 323 323 323 323 322 321 321 320 319 319 318 317 318 319 319 319 320 321 321 322 322 322 322 322 322 322 322 320 318 316 314 314 315 316
320 330 330 325 326 324 320 321 317 317 321 314 310 314 315 316 314 313 315 315 315 315 314 315 316 317 316 316 318 318 316 314 314 314 318 320 324 329 333 333 333 332 332 332 332 333 333 334 333 332 331 330 328 327 326 326 326 327 327 327 326 324 323 324 323 323 324 323 323 322 321 320 320 319 318 318 319 319 319 319 320 321 321 322 322 322 322 322 322 322 321 320 317 315 314 315 316
321 328 326 330 335 322 315 317 313 313 316 313 312 313 313 315 314 314 316 314 314 315 315 314 315 316 316 316 317 318 317 315 314 314 315 316 319 322 327 331 332 331 330 330 331 332 333 334 334 333 333 333 331 329 327 326 326 327 327 327 327 326 325 325 325 323 323 324 324 324 323 322 321 320 320 319 319 319 320 320 320 321 321 321 322 322 322 322 322 322 322 321 319 316 315 315 316
317 321 325 336 331 316 312 314 313 314 313 312 312 312 313 314 314 314 315 313 313 315 315 314 315 316 316 316 316 317 318 316 315 315 315 315 316 317 320 324 326 327 328 329 330 330 331 332 333 333 333 333 332 331 328 326 327 327 327 327 328 328 327 327 327 326 325 324 324 324 324 323 322 321 321 320 319 319 319 319 320 320 321 321 322 322 322 322 322 323 322 322 321 318 315 315 316
315 319 328 327 316 315 315 314 314 313 312 313 313 313 313 313 314 314 313 315 315 314 315 315 315 316 315 315 316 316 317 317 315 315 316 316 315 315 317 318 320 323 325 328 329 328 328 329 330 331 332 332 332 331 329 328 328 328 328 328 329 329 329 329 328 328 327 326 325 325 325 325 324 323 322 322 321 320 320 319 319 320 320 320 321 321 321 321 322 322 322 322 322 320 317 315 315
315 316 318 315 311 316 315 312 314 313 312 313 312 313 314 313 314 313 313 318 319 315 315 316 315 315 316 315 315 316 317 316 315 314 315 315 315 315 315 317 319 321 324 326 326 325 325 326 328 329 331 331 332 332 331 330 330 330 329 329 330 330 330 329 329 329 329 328 327 326 326 325 325 325 325 324 323 322 321 320 320 320 320 320 320 320 320 320 321 321 322 322 322 321 319 316 315
318 315 311 312 312 314 314 313 314 313 313 313 312 314 314 313 313 313 313 316 317 315 315 315 315 315 315 316 315 315 316 316 315 314 314 314 314 314 315 315 317 318 321 322 322 322 322 323 325 328 330 330 331 332 331 331 331 331 331 331 331 331 331 330 330 330 329 329 329 328 328 327 327 326 326 325 325 325 324 322 321 321 321 321 320 320 320 320 320 321 321 322 322 322 321 318 316
318 317 311 312 312 312 314 313 313 313 313 313 314 314 313 313 314 312 312 315 315 314 315 314 315 315 315 315 315 315 315 315 315 314 314 314 314 314 315 315 316 317 318 319 319 319 319 320 322 325 328 328 330 331 331 331 331 331 331 332 332 332 332 332 332 331 330 330 329 330 329 329 329 328 327 327 326 326 326 325 324 323 323 322 322 322 322 321 321 320 320 321 321 322 321 320 318
316 317 312 312 313 313 313 313 313 312 313 313 313 313 312 313 313 311 313 315 315 314 314 314 315 315 315 315 315 315 315 314 315 314 314 314 314 315 315 316 316 316 316 316 316 316 316 316 319 321 324 326 327 329 330 330 330 331 331 332 332 332 332 332 333 332 332 331 330 330 330 330 330 330 329 328 328 327 327 327 326 326 325 323 323 323 323 323 323 322 321 320 321 322 321 321 320
314 314 312 312 312 312 312 313 313 313 313 313 313 313 312 312 312 313 314 314 315 315 314 314 315 316 315 315 314 315 315 315 314 314 314 314 314 314 315 315 316 315 315 315 315 315 315 315 316 317 320 322 324 326 327 328 329 329 330 330 331 332 332 332 332 333 333 332 332 331 330 331 331 331 330 330 329 328 327 327 327 327 327 326 325 325 324 324 324 324 322 321 321 321 321 321 321
313 312 311 312 312 312 312 313 313 313 313 313 315 314 312 312 313 316 315 314 315 315 315 314 314 316 316 315 315 314 314 315 315 315 315 314 314 314 314 314 314 315 315 315 314 314 315 315 314 315 317 319 321 323 324 325 327 327 328 328 328 329 330 331 332 332 333 333 333 332 331 331 331 331 331 331 330 330 329 328 328 328 328 327 326 326 326 325 324 324 324 322 321 321 321 321 321
312 312 313 312 311 312 312 313 312 313 314 313 314 314 312 312 314 316 314 314 315 314 315 315 315 315 316 315 315 314 315 315 315 316 315 315 315 314 314 315 314 315 315 315 314 315 315 314 314 314 315 316 318 320 321 323 324 325 327 327 327 327 328 329 330 331 332 333 333 333 332 331 331 331 331 331 331 330 330 329 329 329 329 328 328 328 327 326 325 325 324 324 322 321 321 321 321
312 313 315 314 314 315 311 312 312 312 314 313 312 313 315 315 315 316 314 314 315 314 315 315 315 315 315 315 315 315 315 315 316 316 316 315 315 315 314 315 315 315 315 315 315 315 315 314 315 315 314 315 315 317 319 320 321 323 325 326 326 325 326 327 328 329 330 331 333 333 333 332 332 332 332 332 331 330 329 329 330 330 330 329 328 328 328 327 326 326 325 325 324 322 321 321 322
313 313 315 318 318 316 311 310 312 312 313 312 311 313 319 320 314 313 314 313 314 314 315 315 315 315 315 315 315 315 315 315 316 315 316 316 315 315 315 315 315 315 315 315 315 315 315 314 315 315 315 314 314 315 316 317 319 320 321 323 325 325 325 326 327 327 329 330 331 332 332 332 332 331 331 331 331 330 329 329 329 329 330 330 329 328 329 329 327 326 326 326 325 324 322 322 323
316 311 317 321 315 317 314 309 311 313 313 312 311 313 319 321 313 311 313 313 313 314 314 314 315 315 315 315 315 315 315 315 315 315 316 315 316 315 316 315 315 315 315 315 315 315 314 314 314 314 314 314 314 314 314 316 317 318 319 320 321 323 324 324 325 326 328 329 331 331 330 331 331 330 330 330 329 330 329 328 328 328 329 329 329 328 328 328 328 327 327 327 326 324 324 324 324
321 312 320 321 312 319 319 308 309 313 313 311 312 315 319 318 312 311 313 313 313 313 314 314 314 314 314 315 315 315 315 315 315 316 315 315 315 315 315 315 315 315 315 315 315 315 314 314 314 314 314 314 314 314 314 314 315 316 317 318 319 321 322 323 323 324 326 327 329 330 330 330 330 329 328 328 329 329 328 327 326 327 327 327 327 326 326 326 327 327 327 326 326 325 325 324 324
322 314 320 320 315 319 317 311 308 310 313 312 311 315 320 318 312 313 314 313 313 313 314 314 314 315 315 314 315 315 316 316 315 316 316 316 315 316 316 316 315 315 315 315 315 315 314 314 314 314 314 314 314 314 314 314 314 315 315 316 319 320 321 321 321 324 325 325 326 327 328 329 330 330 329 329 330 331 329 327 327 327 326 326 327 327 326 327 327 327 327 326 325 326 325 324 324
320 317 319 319 318 317 316 317 310 308 313 315 313 314 319 319 312 313 314 312 313 313 314 315 315 315 315 316 315 316 316 316 316 316 316 316 316 316 316 316 316 316 316 315 315 315 315 315 314 314 314 314 314 314 314 314 314 315 315 316 317 319 320 320 321 322 323 325 326 326 325 325 326 326 328 329 331 332 332 330 329 328 327 327 327 326 326 326 326 325 326 326 325 326 325 324 323
319 318 317 315 316 314 315 320 313 310 315 316 316 316 318 320 313 313 315 313 312 313 314 315 316 316 315 316 316 315 316 316 316 317 316 316 316 316 316 316 316 316 316 316 316 316 315 315 315 315 315 315 315 315 314 314 314 314 316 317 317 318 319 320 322 322 324 327 330 330 327 324 326 328 328 327 327 330 332 332 331 329 328 329 328 326 326 326 324 323 325 325 325 325 325 324 324
321 321 321 321 321 318 317 319 311 310 316 317 318 318 318 320 317 314 315 313 311 312 314 314 315 316 315 315 315 315 315 316 317 316 315 315 314 315 315 316 316 316 316 316 316 316 316 316 316 316 316 316 315 315 315 315 315 315 315 317 318 318 319 319 321 322 324 326 329 332 331 328 329 332 333 331 328 327 328 329 330 331 331 331 330 329 328 328 326 324 324 324 325 325 325 325 324
318 320 322 322 321 319 316 317 311 307 314 319 317 319 318 319 318 313 312 312 309 310 313 314 315 315 315 315 314 315 314 315 315 314 314 314 314 314 315 315 316 316 316 316 316 316 317 317 316 317 316 316 316 316 316 316 315 315 316 316 316 317 318 320 320 321 321 321 323 326 330 331 326 325 330 332 331 330 330 329 327 328 330 330 330 328 326 328 328 327 325 324 325 325 324 324 324
318 319 320 318 317 319 314 314 314 308 312 318 315 317 318 318 318 312 309 311 310 311 312 313 315 315 315 315 314 315 315 314 314 314 314 314 314 314 314 315 315 316 316 316 317 316 317 317 316 317 316 317 317 316 316 316 316 316 316 316 316 317 318 319 320 320 321 321 321 320 323 325 321 323 328 329 330 331 330 328 323 323 326 327 326 325 326 328 328 328 326 325 325 324 323 324 324
322 318 318 319 317 318 315 313 314 310 313 319 317 318 318 317 317 311 308 310 311 312 312 312 314 314 314 315 315 314 314 315 315 314 314 314 314 314 313 314 314 314 315 315 316 316 316 316 317 317 317 316 316 317 316 316 316 316 316 317 317 319 320 320 321 322 323 322 322 321 320 319 319 327 333 332 332 330 328 327 325 325 327 326 323 324 326 328 328 328 326 325 325 325 324 323 323
321 319 320 320 317 318 317 314 314 312 311 316 318 317 316 315 316 315 308 306 309 310 311 311 312 313 314 314 314 314 314 314 315 314 315 314 314 314 314 314 314 314 314 315 315 316 316 316 316 317 317 317 316 316 316 316 316 317 317 318 318 319 320 321 322 323 323 323 322 321 321 319 319 323 328 330 330 330 331 331 331 330 329 329 328 325 324 325 326 326 325 325 325 325 325 324 324
318 324 328 323 320 320 318 315 315 314 311 313 314 316 322 322 322 323 312 305 307 308 310 312 312 312 313 313 314 315 315 314 315 315 315 315 315 315 315 315 315 315 315 315 315 315 315 316 316 316 316 316 316 316 316 316 317 317 317 318 318 319 320 320 321 321 321 321 320 319 319 319 319 318 320 325 326 326 328 329 329 328 327 329 330 329 327 326 326 325 324 325 325 324 325 324 324
315 323 329 327 327 325 319 316 317 318 315 311 310 315 330 332 327 326 320 315 314 309 306 309 312 312 311 313 313 313 314 313 314 315 315 315 315 315 316 316 316 316 316 316 315 315 315 316 316 316 316 316 316 316 316 317 317 317 317 318 318 318 319 318 318 318 318 318 318 319 319 319 320 319 319 321 322 322 325 328 328 326 323 324 326 328 329 328 327 326 325 325 325 324 324 323 323
316 317 320 323 327 325 321 319 316 318 315 309 310 315 322 325 323 323 322 322 322 313 306 307 312 314 313 313 313 313 313 313 313 314 314 314 314 316 316 316 316 317 317 316 316 316 316 316 316 316 316 316 316 316 316 317 317 317 317 317 317 317 317 317 317 318 318 318 318 319 319 319 319 320 319 320 320 320 324 326 328 329 327 326 325 325 325 326 325 325 325 324 322 321 322 323 323
317 315 317 323 326 324 325 324 321 320 314 313 319 318 315 318 318 318 317 318 320 318 314 311 311 315 315 314 314 313 313 313 313 314 314 314 315 316 316 316 316 316 317 316 316 317 316 317 317 316 317 317 317 317 317 317 317 317 317 316 317 317 316 316 317 317 317 317 318 318 318 318 318 318 319 319 320 321 322 323 324 326 328 328 326 323 322 323 322 322 323 321 320 319 321 323 323
318 311 314 321 323 325 329 329 327 318 311 318 324 314 312 320 322 318 313 314 317 319 320 315 311 313 313 312 313 312 313 314 314 314 315 316 316 316 316 317 316 316 317 316 316 317 317 317 317 317 317 317 317 317 317 317 317 316 317 316 316 316 316 316 316 316 316 316 316 316 316 317 317 317 318 318 319 319 320 320 321 323 324 325 325 324 324 324 323 322 320 319 321 322 321 322 323
313 307 313 317 318 323 325 326 325 316 313 324 323 312 311 319 326 325 314 311 318 322 322 315 310 313 314 313 313 313 314 315 315 315 316 316 316 316 316 316 316 317 316 316 316 317 316 316 316 316 316 316 316 316 316 316 316 316 316 316 316 315 315 315 315 315 315 315 315 315 315 315 315 316 316 316 317 317 317 317 318 319 321 323 325 326 327 326 325 323 320 320 323 324 322 322 322
308 312 318 317 320 324 323 324 321 314 320 326 318 313 312 312 323 328 315 311 316 319 319 315 311 314 316 315 315 315 315 315 315 315 315 315 315 315 316 316 316 316 316 316 316 316 316 316 316 316 316 316 316 316 316 316 316 316 316 316 315 315 315 315 315 315 314 314 314 314 314 314 315 314 315 315 315 315 315 315 315 315 317 319 320 319 320 322 322 320 319 320 323 324 323 323 322
310 322 322 316 320 322 322 325 318 314 325 322 312 311 312 311 320 322 315 316 316 314 317 318 314 313 314 315 315 315 315 315 315 315 315 315 315 315 315 315 316 316 316 316 316 316 316 316 316 316 316 316 316 316 316 315 316 316 315 316 315 315 315 315 315 315 314 314 314 314 314 314 314 314 314 314 314 314 314 314 314 314 314 314 315 316 318 321 322 321 321 322 322 323 323 322 320
316 320 319 318 320 318 320 326 319 317 322 313 309 312 311 313 318 315 315 319 316 310 311 315 313 311 313 315 315 316 315 315 315 315 315 315 315 315 315 315 316 316 316 316 316 316 316 316 316 316 316 316 316 316 316 316 316 316 316 316 316 315 315 315 315 315 315 314 314 314 314 314 314 314 314 313 313 313 313 313 313 313 313 313 314 317 318 319 320 320 321 322 322 323 323 320 318
315 315 318 320 319 315 317 320 313 315 318 310 307 311 314 316 315 314 316 313 310 309 309 311 311 311 313 312 313 316 315 315 315 314 315 315 315 315 315 316 315 315 316 316 316 316 316 316 316 316 316 316 316 316 316 316 316 316 316 316 316 316 315 315 315 315 315 314 315 314 314 315 314 314 314 314 313 313 313 313 312 312 312 312 313 314 314 315 315 316 317 318 318 319 321 321 320
313 314 315 317 324 323 319 319 318 318 318 312 308 312 320 320 311 311 312 307 307 310 310 311 311 312 312 310 311 314 315 315 314 315 315 315 315 316 315 315 315 315 315 315 316 315 316 316 316 316 316 316 316 316 316 316 316 315 315 315 315 315 315 315 315 315 315 315 315 315 315 315 315 315 314 314 314 313 313 313 312 312 312 312 312 312 312 312 313 314 315 316 316 317 318 319 320
314 312 312 314 322 324 316 312 317 318 315 314 311 315 322 317 309 310 307 304 306 307 308 311 311 311 311 310 311 312 314 315 314 315 315 315 316 315 315 315 314 315 315 315 315 315 316 316 315 316 316 316 316 316 316 316 316 316 315 315 315 315 315 315 315 315 315 315 315 315 316 315 315 315 315 314 314 314 313 313 312 312 312 312 311 311 311 311 311 311 312 313 313 314 316 317 318
314 311 315 317 315 320 316 307 308 310 311 314 313 316 319 314 312 315 311 309 309 308 308 309 310 311 310 311 312 311 313 315 315 316 315 315 315 314 315 315 314 315 315 315 315 315 315 315 315 316 315 316 316 316 316 316 316 316 316 316 315 315 315 315 315 315 315 315 316 316 316 316 316 315 315 315 314 314 314 313 313 312 312 312 311 311 311 310 310 310 310 310 310 311 314 316 317
316 317 316 312 309 316 318 312 314 314 313 317 314 313 317 314 315 319 315 312 314 314 310 306 308 312 312 312 312 312 314 315 315 315 314 315 315 314 315 315 315 315 315 315 315 315 316 315 315 316 315 316 316 316 316 316 316 316 316 316 315 315 315 315 315 315 315 315 315 316 316 315 316 315 315 315 315 315 314 314 314 313 313 312 312 311 311 310 310 310 309 309 308 309 311 313 314
314 316 312 311 315 317 314 312 318 316 313 319 318 311 311 312 318 322 315 313 318 316 311 307 309 313 313 313 314 313 315 315 314 315 314 315 315 314 315 315 315 315 314 315 315 315 315 315 315 315 315 315 315 316 316 315 316 316 315 316 315 315 315 315 315 315 315 315 315 315 315 315 315 315 315 315 315 315 315 314 314 314 314 313 313 312 312 311 311 310 310 309 308 308 309 311 312
309 309 307 313 322 321 315 313 316 315 313 318 320 316 315 315 318 321 314 316 321 317 315 312 310 313 315 315 315 314 314 314 314 315 314 315 315 315 315 315 315 315 315 315 315 315 315 315 315 315 315 315 315 315 316 315 316 316 315 316 315 315 315 314 314 314 315 315 315 315 314 314 315 315 314 315 314 314 314 314 314 314 314 313 313 313 312 311 311 311 311 310 308 308 309 311 312
310 311 311 314 316 314 314 313 313 316 318 318 318 318 322 320 316 317 315 316 317 315 317 314 309 312 315 314 315 315 314 314 314 314 315 315 315 315 315 315 315 315 315 315 315 315 315 315 315 315 315 315 315 315 315 315 316 315 315 315 315 315 315 315 314 314 314 314 314 315 314 314 314 314 314 314 314 314 314 314 314 313 313 313 313 313 312 312 311 311 311 310 308 307 308 309 311
312 313 313 314 314 314 316 314 311 313 315 318 317 313 320 322 314 312 313 311 308 307 309 310 309 312 314 314 315 314 313 314 314 314 315 315 315 316 315 315 315 315 315 315 315 315 314 314 315 314 315 315 315 315 315 315 315 315 315 315 315 315 315 315 315 314 314 314 314 314 314 314 314 314 314 314 314 314 314 314 313 313 313 313 313 313 312 312 311 311 311 310 309 307 306 307 309
Wind_Speed
3 1 1 2 1 2 1 2 1 3 3 2 2 1 3 2 2 1 2 1 1 3 5 6 13 18 7 3 7 5 6 7 7 4 2 6 15 20 19 18 18 18 17 18 17 16 17 16 14 13 12 10 8 6 6 6 7 8 10 10 10 10 11 11 11 11 12 12 13 13 15 17 18 16 15 12 9 8 8 10 11 11 12 12 13 12 13 14 14 13 12 12 12 13 13 13 12
2 1 3 3 1 2 1 3 2 3 5 1 3 3 3 2 1 4 7 5 3 3 7 12 16 14 6 7 8 6 4 4 7 5 5 15 21 21 19 19 19 18 17 17 17 16 16 15 15 13 12 10 8 6 5 6 7 8 9 10 10 10 11 11 11 11 11 12 13 13 14 15 16 15 14 11 8 6 7 9 9 10 13 13 14 14 14 14 13 13 13 13 13 13 13 13 13
1 3 4 4 2 3 2 4 2 2 4 1 5 3 2 1 5 6 8 5 5 12 14 14 12 9 5 6 6 4 2 3 6 6 12 22 22 22 21 20 19 18 17 17 17 16 16 15 15 14 12 10 8 7 5 6 7 8 9 10 10 10 10 11 11 12 11 12 12 13 14 14 14 13 12 10 7 5 6 8 8 10 13 13 14 14 15 15 13 13 14 14 13 14 14 13 13
2 4 5 3 2 3 4 4 2 4 2 3 3 5 3 5 7 6 6 6 13 15 10 9 6 4 2 3 4 3 2 3 7 10 19 23 20 22 21 20 20 18 17 17 16 16 16 16 15 14 12 10 8 7 6 6 7 8 8 9 10 10 10 11 11 12 13 12 12 13 15 15 14 12 10 8 6 4 6 7 6 9 12 12 13 14 15 15 13 13 14 13 12 13 13 13 13
2 5 4 2 1 2 4 3 2 4 4 5 1 6 5 6 7 5 5 11 13 5 3 5 3 4 4 5 4 2 3 5 9 13 19 22 20 21 21 21 20 18 18 16 16 16 16 16 16 14 12 10 8 7 6 6 7 7 8 9 9 9 9 10 11 12 13 13 13 13 14 15 13 11 10 7 5 3 3 5 5 8 11 11 12 13 14 13 13 13 12 12 11 12 12 12 12
4 6 4 3 3 2 3 2 1 2 5 5 2 6 6 6 7 8 7 12 8 2 2 4 4 6 5 5 4 5 6 6 10 15 19 21 20 21 21 21 19 18 17 16 17 17 17 17 16 13 12 10 9 7 6 7 7 7 7 8 9 9 9 9 11 12 13 14 14 13 13 13 11 10 9 6 4 4 4 6 7 9 10 10 12 13 13 13 13 13 12 11 11 11 11 11 11
5 5 3 4 4 3 3 3 3 3 4 5 3 5 5 7 10 10 8 8 4 2 4 4 7 8 4 4 4 7 7 6 11 16 20 20 20 21 20 20 19 18 16 16 17 18 17 16 15 13 12 11 9 7 6 7 7 7 7 7 8 8 8 9 10 11 12 13 12 12 12 11 10 9 7 6 5 5 7 8 7 8 9 9 11 12 12 12 12 11 11 10 10 10 10 10 10
6 3 2 4 3 4 4 2 4 3 2 3 3 5 5 10 14 11 7 5 3 3 4 6 8 4 2 4 4 6 5 7 13 17 20 19 20 21 20 20 18 17 16 17 18 18 17 16 15 13 12 10 8 7 7 7 7 7 6 7 8 8 8 8 9 10 11 12 11 11 11 9 8 7 6 5 4 5 8 8 7 7 8 9 10 11 11 12 11 11 10 10 10 10 10 10 10
6 2 2 4 2 3 3 1 3 3 3 4 4 4 5 12 14 11 7 2 2 4 6 9 6 0 4 5 4 7 5 9 15 18 21 19 21 20 19 19 17 17 16 17 18 18 17 16 15 14 12 10 8 8 7 7 6 6 6 6 7 8 8 8 9 9 10 11 11 10 10 8 7 7 6 6 5 7 10 9 8 7 8 10 10 11 11 11 11 11 10 9 9 9 9 9 9
4 2 2 3 2 2 3 3 2 2 4 5 4 3 6 12 12 9 6 2 3 4 7 9 2 2 8 4 4 7 7 11 16 21 21 20 21 20 19 18 16 16 16 17 18 18 17 16 15 14 12 10 9 8 7 7 6 6 6 6 6 7 8 8 8 8 9 10 10 9 9 8 7 7 7 7 7 9 11 10 9 8 9 10 11 11 11 11 11 11 9 9 8 8 8 8 8
3 3 3 4 3 1 2 3 4 4 5 5 3 3 7 12 10 6 4 2 4 5 9 9 2 7 9 2 4 7 9 11 16 22 21 19 20 19 19 17 17 16 15 16 17 17 17 16 15 14 12 10 9 8 7 6 6 6 5 5 5 6 7 8 8 8 8 9 9 9 8 8 8 7 8 8 8 10 11 10 9 9 10 11 11 11 11 11 11 10 9 9 8 8 8 7 7
1 2 4 4 2 1 3 2 4 5 6 4 0 3 7 11 8 5 5 4 6 5 8 8 3 8 5 1 6 8 9 11 16 22 20 19 20 19 19 18 18 16 14 15 16 17 16 16 15 14 13 11 10 8 6 6 5 5 5 5 4 4 5 6 7 7 7 8 8 8 8 8 8 8 8 8 9 10 11 11 10 10 11 11 11 11 11 11 10 10 9 8 8 8 7 6 6
3 2 5 3 3 2 3 2 3 4 5 3 2 4 8 11 7 7 8 5 7 5 7 8 3 6 3 1 6 9 11 11 17 22 20 19 19 20 19 18 18 17 16 15 16 17 17 16 15 15 14 12 11 9 7 6 5 5 5 5 4 3 3 4 5 6 6 6 7 8 7 7 7 7 8 8 9 10 11 11 11 10 10 10 10 10 11 11 11 10 10 9 8 8 7 6 5
4 4 5 2 1 2 4 1 2 1 3 5 2 6 10 10 6 8 9 6 7 6 7 8 5 5 3 2 5 10 13 13 18 22 20 19 20 20 19 19 18 18 17 16 16 16 17 16 15 15 14 13 12 10 9 7 6 5 6 6 5 4 3 2 3 4 5 5 6 7 7 7 7 7 8 8 9 10 11 11 10 10 10 10 10 10 11 11 11 11 11 9 8 7 6 5 4
6 5 5 3 2 1 3 1 1 4 4 4 3 8 11 10 5 7 10 7 7 7 7 8 7 4 3 4 3 9 14 14 19 22 20 20 20 20 19 19 18 18 18 18 18 17 17 16 16 15 14 14 12 11 10 9 8 7 7 7 7 6 4 3 2 2 3 4 4 5 6 6 6 7 7 7 8 9 10 9 9 9 9 9 9 9 9 10 11 11 11 9 7 6 6 5 3
7 5 5 3 1 1 3 2 3 4 5 4 6 9 9 9 8 7 10 6 6 9 9 8 10 6 2 4 2 8 15 14 19 22 21 20 21 21 20 21 20 19 20 19 19 18 17 16 16 15 15 14 13 12 11 10 9 8 8 8 8 7 6 5 4 3 2 3 3 4 4 4 5 5 6 6 7 8 8 8 7 7 8 7 7 8 8 9 10 10 10 9 8 6 6 5 4
6 4 4 2 2 2 4 4 4 4 5 4 7 12 9 5 9 8 8 6 7 11 10 7 11 10 4 3 2 7 15 15 18 21 21 21 22 23 22 23 22 22 22 21 21 20 19 18 17 16 16 15 15 14 13 12 11 11 10 9 9 9 8 7 6 5 4 4 3 3 4 4 4 4 5 6 6 7 7 7 6 6 6 6 5 6 6 7 8 8 9 8 7 7 6 5 4
5 3 3 1 3 3 5 7 7 5 1 5 9 14 11 4 8 10 6 5 7 10 11 9 11 13 8 5 4 8 14 17 18 20 22 22 24 26 26 25 25 25 24 23 23 21 21 19 18 18 17 17 16 16 15 15 13 13 12 11 11 11 10 9 9 8 7 6 5 4 4 4 4 4 4 5 6 7 7 7 6 5 5 5 4 4 4 4 5 6 7 7 7 6 6 5 5
3 3 3 3 5 4 6 7 8 5 0 6 10 12 11 5 9 12 5 4 6 8 9 9 11 14 12 8 8 9 14 17 18 19 20 21 23 26 28 28 27 26 25 25 24 23 22 21 20 19 19 18 18 18 17 16 16 15 14 13 13 12 12 11 10 10 9 9 8 6 6 6 5 5 5 6 7 7 8 8 7 6 5 5 4 4 3 2 3 4 4 5 6 5 5 4 4
2 4 3 5 7 4 5 6 5 5 2 6 10 10 9 6 9 11 6 4 4 7 10 10 12 15 14 12 10 11 15 18 18 19 19 20 21 23 25 26 26 26 25 24 24 24 23 22 21 20 20 19 19 19 19 18 18 17 16 16 15 14 13 12 12 11 11 11 10 9 8 8 7 7 7 7 7 8 9 9 9 8 7 6 5 4 3 2 1 1 2 3 4 4 4 3 3
2 4 4 5 6 2 4 5 3 5 5 6 10 8 6 7 10 10 7 5 3 11 16 16 15 14 14 14 12 12 16 19 19 19 19 19 20 21 21 22 23 23 24 24 25 25 24 23 22 21 21 20 20 20 20 19 19 19 18 18 17 16 15 14 13 13 13 13 13 12 11 10 10 9 8 8 9 9 9 10 10 9 9 8 6 5 4 4 3 1 0 1 2 3 3 2 2
3 2 3 3 6 2 1 3 2 4 7 8 11 8 6 8 9 10 10 7 5 9 13 16 15 13 12 13 14 14 17 19 20 20 19 19 19 20 20 20 21 23 24 25 25 24 24 23 23 22 22 21 21 20 20 20 21 21 20 20 19 18 17 16 15 15 14 14 14 14 14 13 12 11 10 10 9 9 10 11 11 10 9 9 8 8 7 6 5 4 3 2 1 0 1 2 3
3 2 3 4 5 1 1 1 1 3 9 11 11 8 8 8 6 8 13 14 10 4 5 9 14 14 14 13 14 15 17 19 19 19 18 17 17 17 17 19 20 21 23 24 23 23 23 23 23 23 23 22 21 21 21 22 23 22 22 21 21 20 19 18 17 17 16 16 16 16 16 15 14 13 12 11 11 10 10 11 11 10 10 10 9 9 9 8 7 6 5 5 4 3 2 2 3
3 2 2 5 3 0 1 0 1 4 8 10 10 8 6 7 6 4 13 20 16 9 5 4 8 14 16 15 15 15 15 17 17 17 17 16 15 14 16 18 19 20 22 22 22 22 22 22 23 24 24 24 23 22 23 23 24 24 24 23 23 22 21 20 19 18 18 17 17 17 17 17 16 15 14 13 12 12 11 12 12 11 11 10 10 10 9 9 8 8 8 7 6 5 4 4 4
1 3 4 5 3 2 2 1 3 3 5 7 7 6 3 5 5 5 13 18 15 16 14 9 8 11 16 17 17 16 16 17 17 17 18 18 17 17 18 18 19 21 21 20 20 21 21 20 21 23 24 24 24 24 24 24 25 25 25 25 25 24 23 22 21 20 20 19 19 19 18 18 18 17 16 15 15 14 13 14 13 13 12 11 11 10 10 10 9 9 9 9 9 8 7 6 5
4 6 7 6 3 2 3 2 4 4 5 6 5 3 1 2 3 8 15 16 15 16 17 16 12 10 14 18 18 17 17 17 17 18 18 19 20 20 19 19 20 21 19 19 19 19 19 19 20 22 23 24 25 25 26 25 25 26 26 26 25 25 25 24 23 23 22 22 21 21 20 20 19 19 18 17 16 16 16 15 15 14 14 13 12 12 11 10 10 10 9 10 10 10 9 8 7
6 9 9 6 3 2 2 3 3 4 4 3 4 2 0 2 1 5 7 6 9 14 16 17 16 12 12 15 18 18 17 17 17 18 19 20 21 21 19 19 20 19 19 19 19 19 19 20 20 21 22 23 25 26 26 26 26 27 27 26 26 26 26 26 26 25 24 24 23 23 22 21 21 21 20 19 18 17 17 17 17 16 16 15 14 13 12 11 11 10 10 10 11 11 11 10 9
9 14 9 5 3 2 2 2 3 3 3 1 2 1 2 2 2 8 8 3 3 7 14 16 17 15 12 13 16 17 17 16 18 20 20 21 20 19 19 19 17 17 17 16 17 19 20 20 21 21 22 23 25 26 27 27 27 27 28 28 27 27 26 27 27 27 26 25 25 24 24 23 23 23 22 22 20 19 18 18 18 18 17 16 16 15 14 13 12 12 12 11 12 13 13 12 11
10 10 4 5 6 3 3 2 2 1 2 2 3 1 5 3 8 10 7 6 4 3 10 16 18 17 15 14 15 17 17 17 19 21 19 20 20 20 20 18 18 18 17 16 18 21 21 21 22 23 23 24 25 26 27 28 28 28 28 29 29 28 28 28 28 28 28 27 26 26 26 25 25 25 24 23 22 20 19 19 20 19 18 17 17 17 16 15 14 14 14 14 14 15 15 14 13
7 4 3 2 6 3 4 3 1 2 2 2 3 2 7 7 12 11 6 8 7 6 9 13 16 18 19 19 18 19 18 19 20 19 18 19 20 21 21 20 21 21 19 20 21 21 21 21 23 24 24 25 25 26 27 28 29 29 29 29 30 30 29 29 29 29 29 29 28 27 27 27 26 26 25 25 23 21 20 20 21 21 20 19 18 18 18 18 17 16 15 16 16 16 16 15 14
3 2 2 1 1 4 5 3 2 4 1 2 4 1 7 9 9 6 9 12 11 13 13 12 14 16 18 20 21 21 20 20 20 19 19 19 19 21 22 22 23 23 22 23 22 22 22 23 24 25 25 26 26 26 27 28 29 30 30 30 30 30 30 30 30 30 30 30 30 30 29 28 27 26 25 25 25 23 22 22 22 22 22 22 20 20 20 20 20 18 18 19 18 17 17 17 16
3 2 1 3 3 5 7 3 1 3 2 1 5 2 7 9 7 1 3 7 9 14 15 14 16 16 17 19 21 21 20 20 20 19 19 19 19 20 21 21 23 24 24 24 23 24 24 24 25 26 26 26 27 27 27 28 29 30 31 31 31 31 31 31 31 31 30 30 30 31 31 30 29 27 26 25 26 27 24 23 23 22 24 24 22 23 23 23 21 22 21 19 21 20 20 20 19
4 2 3 2 3 3 4 2 2 1 2 1 2 3 4 4 5 1 1 1 1 5 9 10 12 14 14 16 18 19 18 18 19 19 18 18 18 18 19 20 21 22 24 24 25 25 25 25 26 26 26 26 27 27 28 28 29 30 31 30 31 31 31 31 32 31 31 31 30 30 30 32 31 29 28 27 28 29 28 26 25 23 25 26 25 27 28 27 24 25 25 22 23 24 23 23 22
2 2 2 3 3 2 2 2 4 3 2 1 2 2 7 7 8 7 5 5 7 8 9 9 10 12 12 13 15 16 17 18 19 18 17 17 17 17 18 18 19 20 22 24 25 26 26 26 26 26 26 27 27 27 27 28 28 29 30 31 30 30 31 31 31 31 31 31 31 30 29 30 31 29 28 27 29 32 31 29 27 25 26 27 27 26 27 29 27 26 27 26 25 26 26 25 24
5 2 3 2 2 3 3 3 2 3 2 2 1 3 9 11 13 17 17 12 13 16 16 17 17 17 17 17 19 19 20 22 21 18 17 18 19 18 19 18 19 19 20 22 23 24 25 26 26 26 26 26 26 26 27 27 28 29 29 30 30 29 29 29 30 31 31 31 32 34 32 30 30 31 29 28 28 31 33 32 31 30 30 30 31 27 25 29 30 28 28 28 28 29 29 26 26
8 6 5 5 4 4 5 4 4 1 3 3 4 5 8 10 11 17 22 15 12 17 19 20 21 21 22 23 24 24 25 25 23 21 21 21 21 21 21 21 20 20 20 21 22 23 24 24 24 24 24 24 25 26 26 27 28 29 29 29 30 30 29 28 29 29 30 31 32 35 34 31 32 33 34 35 32 30 31 32 34 36 38 36 33 31 30 32 34 32 30 30 31 33 32 29 28
7 5 4 4 4 3 3 3 5 1 3 3 3 4 8 11 11 15 24 18 13 19 21 23 24 23 25 25 26 26 26 27 25 24 24 22 21 20 20 20 21 21 21 21 22 22 22 22 23 22 21 22 24 25 25 26 27 28 28 29 29 28 28 28 29 28 29 30 31 33 33 34 35 33 33 36 36 35 32 29 32 36 40 37 32 35 38 38 38 36 34 33 32 34 35 32 30
5 6 5 2 2 3 2 1 4 3 1 2 3 4 9 11 11 16 21 14 12 19 20 23 26 25 27 28 28 28 27 28 26 26 25 23 21 19 19 19 20 19 19 19 20 20 21 22 23 21 21 22 23 23 24 25 25 25 26 26 26 26 26 27 27 27 27 27 29 30 32 34 33 31 33 35 34 35 32 29 31 32 35 34 34 41 44 42 40 37 37 38 35 35 37 35 33
5 4 5 2 2 2 3 3 4 4 1 3 3 5 9 11 10 15 18 14 17 21 20 23 25 27 30 30 30 30 30 29 28 28 26 24 22 21 21 20 20 19 18 19 20 20 21 22 22 21 22 22 21 22 22 22 22 23 24 25 25 25 26 26 25 26 26 26 27 28 29 30 28 30 35 37 35 33 34 35 34 32 33 32 34 38 43 44 42 38 40 43 39 37 38 37 37
4 4 5 3 2 1 1 2 4 4 2 1 2 4 8 8 7 10 13 14 18 19 20 22 23 26 28 28 28 28 29 29 27 25 21 18 16 16 16 16 17 17 17 19 19 20 20 20 20 21 22 22 21 21 21 21 21 22 23 24 25 26 26 26 27 28 28 27 27 27 28 28 28 30 34 36 36 35 38 39 36 35 36 36 34 33 36 40 40 39 42 44 43 42 41 38 38
1 3 6 4 3 4 3 1 1 3 3 3 2 4 6 5 5 7 6 5 10 11 13 17 18 20 22 23 23 22 22 22 20 14 8 6 7 8 10 10 12 13 13 15 16 17 17 17 17 18 19 20 20 20 20 20 21 21 22 23 25 26 27 28 29 29 28 28 28 27 27 28 28 29 30 34 36 36 37 36 34 34 36 38 38 36 36 39 40 42 43 42 42 45 46 42 39
2 4 6 6 7 7 3 2 3 4 4 3 4 3 5 5 5 7 5 6 8 8 8 15 17 16 18 22 23 21 20 19 16 10 2 3 3 5 8 9 10 10 11 12 12 13 13 12 13 14 15 16 17 17 18 19 20 20 21 22 24 25 26 28 27 27 26 26 26 26 26 26 27 28 29 32 34 35 35 35 36 36 36 38 39 39 40 40 42 43 42 40 40 44 48 47 44
2 4 6 7 7 8 6 5 4 1 2 2 3 2 4 6 5 7 5 8 10 9 8 13 16 14 15 19 21 22 20 16 12 9 6 4 4 5 7 8 9 9 9 10 10 10 10 10 11 11 12 13 13 14 15 16 18 19 20 21 22 24 25 25 24 24 24 25 25 26 26 26 26 27 28 29 30 31 34 35 37 39 39 37 35 37 40 42 43 44 43 43 44 45 48 51 52
3 3 6 8 8 8 7 6 5 2 3 4 4 3 2 5 6 6 6 6 10 10 8 11 14 13 10 12 15 16 13 8 5 5 6 5 4 3 3 4 5 6 7 7 8 9 9 10 10 10 11 11 11 12 13 15 16 18 19 20 21 23 23 23 23 23 24 25 25 26 26 26 26 26 27 28 29 31 33 35 36 37 39 38 37 38 40 42 44 44 45 46 47 49 49 53 55
3 2 6 7 7 7 5 6 4 0 1 4 5 2 1 6 6 5 5 4 8 9 7 9 13 12 7 4 4 3 6 6 8 10 11 10 8 7 6 6 5 5 4 4 4 5 5 6 6 7 7 8 9 10 12 14 15 17 18 20 21 22 22 22 22 24 24 25 26 26 26 26 26 26 27 28 29 30 32 34 35 37 39 39 43 45 43 44 43 41 43 45 48 51 51 53 52
4 5 7 7 6 6 5 5 4 2 2 4 5 2 1 5 7 4 3 1 6 7 6 7 9 11 10 10 11 12 14 15 16 15 14 13 11 11 11 11 11 10 9 8 7 6 4 3 2 2 3 4 6 8 10 12 14 16 18 19 20 20 20 21 22 23 24 25 25 25 25 25 25 26 27 27 29 30 30 31 33 36 38 39 42 44 43 45 43 40 41 44 50 52 49 50 48
9 7 7 7 6 5 4 3 4 3 2 6 5 2 0 3 6 4 1 2 5 3 4 7 7 11 13 14 16 17 17 18 16 14 13 13 12 11 12 12 12 12 11 10 9 8 6 6 5 5 5 6 7 8 9 11 12 15 16 17 18 18 18 19 20 21 22 23 23 23 23 24 24 25 25 25 26 27 28 29 30 32 35 36 39 40 39 41 41 41 41 43 49 50 46 47 47
7 4 5 5 4 4 4 4 3 2 4 6 4 3 1 3 5 3 3 5 5 3 3 5 6 8 11 13 14 14 15 15 12 11 11 12 12 12 12 12 12 12 11 10 9 9 8 7 6 6 6 6 7 9 10 12 13 14 14 15 16 16 17 18 19 20 20 21 21 22 22 22 22 22 22 22 23 23 24 26 27 28 30 31 33 34 36 40 42 43 42 42 45 47 45 46 49
5 5 6 5 2 3 2 3 1 2 5 4 2 2 2 5 7 6 7 8 6 7 8 8 8 9 8 8 8 10 12 10 9 10 10 12 13 14 14 14 15 15 14 14 14 13 12 11 11 10 9 9 9 9 10 12 13 13 13 14 14 15 16 18 19 19 19 19 20 20 20 20 19 19 20 20 20 20 21 23 24 25 27 28 29 31 35 38 40 40 41 41 43 47 48 49 51
4 6 6 4 3 2 2 4 2 3 4 3 3 2 2 5 6 9 11 9 6 8 9 9 11 13 12 8 3 5 8 8 8 10 12 14 15 16 17 17 17 17 16 16 16 15 15 14 13 12 12 11 11 11 11 11 11 11 12 13 13 15 17 18 18 19 18 18 18 18 17 17 18 18 18 18 18 19 21 21 22 24 25 26 28 30 33 35 37 40 42 43 45 48 50 52 52
3 3 5 5 5 5 4 4 3 4 2 3 3 2 3 3 2 6 10 9 8 10 12 13 13 13 13 9 1 4 6 7 8 12 15 16 17 18 18 17 17 17 16 16 15 15 14 13 13 12 12 12 12 13 14 13 12 9 9 10 13 15 17 18 18 18 17 17 16 16 16 15 16 16 16 17 17 18 20 21 22 24 25 26 28 29 31 33 36 39 43 46 48 49 50 52 52
2 2 5 3 4 5 3 3 5 3 0 2 2 3 4 3 5 8 6 7 9 10 11 14 12 10 8 4 2 6 8 8 11 15 17 17 17 17 16 15 15 14 14 15 14 13 13 12 12 11 12 12 13 14 15 16 15 13 11 10 11 14 17 18 18 17 16 16 16 15 15 14 15 15 16 17 17 18 19 20 22 23 25 26 28 30 32 33 35 38 42 45 48 50 50 50 50
2 2 3 4 4 7 6 2 0 3 1 3 1 4 5 3 6 8 4 5 6 4 6 8 6 4 3 3 5 9 11 12 15 17 17 16 16 15 14 13 12 12 12 12 12 11 11 10 10 10 11 11 13 14 15 16 16 16 14 12 11 13 15 17 18 18 17 17 17 16 15 15 15 16 17 18 18 19 20 21 22 23 24 25 27 29 31 33 35 38 41 43 46 48 49 49 47
4 3 5 4 3 5 5 2 3 4 2 4 1 4 5 2 3 6 5 4 7 5 3 2 1 2 5 7 9 12 14 16 17 17 16 15 14 12 11 12 12 11 10 10 10 9 9 8 8 8 9 10 11 12 14 15 16 16 15 14 12 12 13 16 18 19 19 19 19 18 17 17 17 18 18 19 20 20 21 22 23 23 24 25 27 28 30 32 33 35 38 41 42 43 46 48 48
4 5 4 4 3 2 2 2 1 1 2 4 4 3 3 4 5 4 3 5 8 7 2 1 2 6 9 10 13 16 18 19 18 16 14 12 12 11 12 12 12 11 9 9 9 8 8 8 8 8 7 7 7 9 11 13 14 15 15 14 13 12 12 14 16 18 20 21 21 20 20 20 19 20 21 21 22 23 23 24 24 25 25 26 27 28 30 31 32 33 34 37 40 40 42 45 47
4 4 3 2 3 4 2 2 4 3 3 3 4 4 3 6 6 5 7 8 8 7 4 4 8 12 13 13 17 20 21 19 16 14 12 12 12 12 12 12 11 10 9 9 9 9 9 8 9 9 8 7 7 9 11 12 13 14 15 15 15 14 14 14 16 18 20 21 22 23 22 22 23 23 24 24 25 25 26 26 27 27 27 28 28 29 30 31 33 34 34 34 37 39 42 44 45
3 4 4 2 2 2 2 1 2 4 4 3 2 3 5 6 5 7 9 8 6 6 5 8 13 15 15 17 21 22 20 17 13 12 11 11 11 11 11 11 10 9 8 9 9 9 9 10 10 10 9 9 9 10 12 14 14 15 16 17 16 16 16 16 16 17 18 19 20 22 22 24 25 25 26 26 27 27 27 28 29 29 30 30 30 31 31 32 33 34 35 34 34 37 41 44 46
6 5 6 6 4 4 3 2 1 3 3 4 3 3 7 6 4 5 6 6 6 8 8 10 14 15 15 19 23 20 16 14 12 11 10 9 9 10 9 8 8 7 8 8 9 10 11 12 12 12 12 12 12 13 15 16 17 17 18 18 18 18 17 17 16 16 16 17 18 19 21 23 24 24 25 26 26 26 27 29 29 30 31 31 32 32 33 34 34 34 35 35 34 36 39 42 44
Wind_Direction
280 269 177 148 156 155 63 37 95 6 68 96 305 218 246 221 169 190 209 218 168 211 189 151 151 155 151 164 181 160 132 153 166 138 191 174 143 150 158 162 163 160 161 156 155 155 150 145 142 142 143 144 144 135 109 84 67 57 49 48 57 63 67 67 70 79 84 87 91 90 94 101 103 101 96 89 84 77 84 98 101 100 109 110 97 92 91 90 92 87 81 80 82 81 78 77 79
277 179 135 141 118 164 198 45 87 341 48 77 274 186 257 315 143 200 196 208 206 166 147 135 141 150 130 126 131 107 115 150 168 153 138 146 145 152 159 165 164 161 165 160 158 158 155 148 146 146 147 150 150 137 110 84 73 62 54 53 62 67 72 72 71 78 82 85 90 93 98 104 106 107 107 102 94 80 81 95 102 100 100 97 93 92 90 90 88 85 81 76 79 81 79 77 78
251 148 126 146 90 98 120 45 78 68 74 206 268 241 252 186 203 214 204 215 138 125 128 127 126 134 117 110 101 93 145 164 175 160 144 151 152 157 162 165 164 164 167 164 162 163 160 152 149 150 151 154 152 139 112 86 74 64 57 56 64 69 74 75 75 79 80 85 92 98 100 103 105 108 111 107 101 90 83 86 90 100 99 95 93 92 90 90 85 84 83 78 76 74 73 77 80
177 135 120 132 95 75 81 45 107 118 143 211 265 259 221 187 209 217 203 165 130 121 123 127 111 117 115 104 102 96 118 150 172 165 155 156 157 160 163 164 166 167 169 167 164 165 163 157 152 152 155 155 151 140 114 88 78 69 60 60 65 68 74 75 76 78 78 82 90 101 105 105 104 102 103 109 116 103 82 74 78 104 106 97 93 92 93 94 91 86 85 85 76 65 66 74 80
158 131 125 128 98 75 90 72 101 114 197 188 206 259 227 201 200 197 183 160 147 110 118 148 113 112 103 100 102 100 119 142 160 164 158 157 160 163 164 164 167 168 169 167 165 166 163 160 155 154 157 155 152 140 113 92 83 74 64 65 66 67 74 77 78 78 78 80 86 101 107 107 110 112 110 115 127 118 78 72 86 110 106 96 93 93 93 94 92 85 84 84 71 62 65 74 83
140 122 110 98 92 102 113 107 148 189 226 170 168 256 225 206 186 170 165 167 178 317 180 177 154 133 105 86 81 120 125 138 159 162 159 159 163 164 166 165 167 167 168 167 167 168 165 163 157 154 159 157 153 139 114 99 88 79 68 67 69 68 73 77 80 78 78 77 81 93 104 108 113 121 126 127 114 100 92 88 102 113 104 95 93 93 94 93 91 86 84 76 65 63 64 74 89
138 125 97 102 80 47 103 141 200 228 235 171 175 249 222 192 171 158 154 170 208 254 197 180 147 129 102 99 100 130 126 141 160 163 163 164 164 165 169 167 168 168 168 169 169 168 167 166 157 156 163 160 153 140 123 111 98 87 74 70 72 71 74 79 81 81 80 78 78 83 95 106 111 118 126 124 96 87 95 99 110 112 101 92 89 92 93 92 91 88 83 70 62 66 66 76 89
135 128 80 105 51 23 84 128 222 219 222 215 226 256 228 175 161 158 158 173 196 199 192 168 149 116 144 145 132 148 136 152 161 166 167 167 166 168 172 169 169 169 170 172 170 169 170 168 161 162 166 162 157 146 134 125 111 99 85 76 75 74 77 82 85 87 87 83 83 81 87 99 105 107 105 101 84 82 95 104 113 108 96 88 85 88 90 90 90 87 79 65 61 67 71 80 90
127 114 60 87 76 35 46 322 252 236 253 265 261 259 211 169 161 159 160 181 190 194 190 166 159 145 173 147 137 159 151 158 163 169 169 170 171 171 174 173 171 171 172 173 172 171 172 171 167 168 170 167 162 152 146 140 129 117 102 91 83 80 82 86 88 91 94 90 89 88 90 93 92 93 90 86 78 87 97 103 108 99 88 85 84 85 87 87 87 85 77 66 62 66 74 86 100
111 78 102 78 83 35 348 283 259 257 265 270 268 240 177 168 163 157 153 163 182 184 179 165 151 143 160 149 137 163 167 162 166 171 173 174 175 175 177 175 174 175 175 173 174 174 174 176 174 174 175 174 171 162 157 152 145 135 120 109 92 87 87 88 90 93 99 95 93 93 93 95 93 90 87 87 86 95 101 103 104 95 85 84 85 84 82 82 83 82 75 68 62 62 73 89 106
86 48 99 74 71 52 259 252 283 279 284 296 282 210 175 172 160 151 144 161 183 169 167 168 173 145 146 166 164 176 176 168 172 174 175 178 179 180 179 178 176 179 181 175 177 179 179 180 180 180 180 181 181 176 169 163 159 151 137 122 103 93 88 88 91 92 96 96 95 93 95 97 96 95 92 95 97 101 103 102 99 92 87 84 83 83 81 79 79 77 72 68 64 62 70 85 106
114 19 78 83 129 203 213 212 284 293 310 320 187 177 182 176 161 167 169 172 183 170 175 175 182 157 139 254 182 186 181 172 175 176 179 180 182 183 182 183 180 181 185 184 183 184 184 185 186 186 186 188 189 189 185 177 174 168 156 139 122 104 92 91 92 93 95 95 94 93 95 96 97 99 98 100 102 103 104 103 102 98 93 88 83 80 81 81 79 76 72 69 67 65 66 78 103
169 136 91 99 164 158 160 174 285 323 326 282 182 167 178 183 184 197 180 171 181 168 188 186 186 173 157 208 185 193 187 180 178 177 180 181 182 185 186 186 184 184 187 191 191 189 189 190 192 191 191 193 195 198 199 195 191 187 177 167 155 136 115 102 98 100 100 98 98 98 99 101 104 105 105 107 108 108 109 110 111 108 101 97 91 84 82 83 81 78 73 69 67 68 69 73 96
168 143 110 117 82 115 152 143 283 150 269 260 191 170 176 190 208 210 185 168 191 182 186 188 182 177 172 178 191 199 190 183 180 178 181 182 185 187 189 189 189 190 191 196 196 195 194 195 197 197 198 199 201 203 206 207 206 206 198 192 187 176 160 137 116 108 107 107 105 104 105 109 112 113 114 115 115 115 116 116 114 111 106 101 95 89 85 83 81 77 73 69 68 71 74 76 92
160 130 97 107 48 351 172 138 167 142 238 238 167 182 179 193 215 216 199 181 197 191 181 181 178 181 199 188 187 199 194 187 181 180 182 184 188 190 192 192 194 196 196 199 200 201 199 199 200 202 206 206 209 210 212 215 216 219 212 208 205 201 191 180 176 135 116 116 113 110 110 116 120 122 123 124 126 124 124 124 117 112 109 104 97 90 85 81 79 75 73 70 67 69 73 82 104
154 128 74 90 118 261 187 163 130 122 252 219 166 182 174 203 219 211 204 193 195 185 181 184 187 191 180 179 164 187 193 195 186 183 184 186 191 192 194 195 198 201 200 202 203 204 204 205 206 207 211 213 216 216 219 222 223 225 221 217 213 213 209 200 204 206 183 149 136 129 122 124 129 134 136 136 137 137 137 135 129 122 115 111 103 96 87 78 77 76 76 72 66 63 64 73 101
143 115 68 73 186 215 191 176 168 156 250 236 179 180 165 212 220 206 200 195 197 185 187 196 200 202 185 170 172 184 192 198 194 189 187 188 193 194 197 198 201 204 203 204 205 206 207 209 210 212 215 217 220 221 224 225 227 228 226 223 217 218 217 212 211 215 220 204 184 166 153 149 147 155 155 155 154 153 155 151 147 143 130 126 116 103 92 79 77 76 77 74 66 61 60 68 91
137 105 99 174 193 203 188 181 190 159 231 219 188 183 172 196 202 189 186 190 196 191 197 208 210 210 210 205 200 201 198 198 200 196 193 192 194 197 199 201 204 206 206 206 206 207 209 210 211 214 217 220 223 224 226 227 229 229 229 229 223 221 220 220 218 218 225 222 216 202 187 178 172 181 181 179 176 173 176 174 177 175 152 147 143 124 104 88 81 75 77 75 70 63 59 72 96
118 95 122 214 204 209 195 180 186 163 344 190 180 185 182 199 187 178 193 200 185 188 207 216 219 218 217 214 209 213 205 203 205 203 201 199 198 199 201 203 205 208 209 210 209 210 210 211 211 214 217 220 223 225 226 228 230 231 231 231 229 226 224 224 222 222 226 228 227 219 210 203 195 195 199 202 197 194 193 194 202 204 194 187 180 166 150 120 95 79 78 73 71 68 62 73 103
119 105 142 237 215 223 222 199 195 194 220 170 171 186 194 206 182 180 198 188 188 203 209 211 219 221 216 215 215 213 206 206 209 209 209 207 206 205 204 205 207 209 211 213 215 215 215 213 213 215 218 221 223 225 226 227 229 231 232 233 233 231 229 228 226 226 227 229 231 228 223 217 212 208 209 213 212 212 209 211 216 219 220 220 216 208 203 191 147 97 80 69 68 69 68 72 105
160 135 179 234 194 193 234 213 232 217 211 183 170 169 199 206 186 191 179 149 245 234 218 218 225 224 215 214 216 211 204 206 209 212 214 213 213 212 212 212 211 212 213 216 219 220 220 218 217 217 219 222 224 226 227 228 230 231 232 233 234 234 233 232 230 229 229 231 232 231 230 226 223 219 219 222 222 223 223 225 228 230 234 237 238 237 233 229 222 211 158 69 64 67 79 91 121
150 177 242 210 165 153 232 206 256 222 196 177 162 157 190 191 191 204 185 175 234 242 234 232 237 234 224 221 219 210 203 207 210 213 217 218 218 218 218 218 216 215 216 219 221 224 225 224 222 220 222 224 225 227 228 230 232 234 234 235 237 237 236 235 234 232 232 232 233 234 234 233 231 228 227 227 228 229 231 234 237 239 242 244 244 244 244 240 238 234 231 234 231 57 104 138 162
161 246 274 182 166 140 146 203 252 187 173 165 163 175 186 175 200 220 209 221 230 247 266 242 241 236 229 228 223 216 209 210 214 217 220 220 220 220 219 219 218 217 218 222 224 227 229 227 226 224 224 226 226 228 229 230 233 236 237 238 239 241 241 240 238 237 236 236 236 237 237 238 239 236 233 232 233 234 235 236 240 244 245 245 245 246 249 247 244 240 236 237 235 238 228 198 189
139 177 233 185 190 257 123 179 168 159 171 169 167 179 185 183 204 230 229 237 238 239 258 262 248 231 225 226 226 228 224 221 224 225 225 225 225 223 221 222 222 222 223 225 227 230 231 230 228 227 228 229 229 229 230 232 234 237 239 239 241 242 244 245 243 242 241 240 240 240 239 240 242 243 241 239 238 239 239 239 241 244 244 245 245 247 250 250 247 244 241 240 239 241 240 229 217
119 169 195 175 175 183 141 101 139 151 168 167 166 170 191 209 216 253 249 248 246 241 244 256 263 234 223 225 229 232 230 230 231 230 228 227 227 226 225 226 227 228 228 228 229 230 231 231 230 230 231 231 232 232 233 234 235 237 239 240 242 243 245 247 248 246 245 244 243 242 242 242 243 245 244 243 243 243 244 244 244 245 245 245 246 249 251 252 251 247 243 241 241 242 244 243 236
208 166 166 159 139 147 153 141 125 132 150 158 172 155 100 207 245 269 261 262 254 244 243 245 253 247 227 224 229 231 232 234 233 233 231 229 227 228 228 228 230 231 232 232 233 233 233 234 233 232 233 234 235 235 236 236 236 238 240 242 243 244 246 248 249 248 247 247 247 246 245 246 246 247 247 246 245 246 248 248 249 248 246 246 248 253 254 254 254 250 247 245 245 245 246 247 246
180 140 127 121 111 110 131 167 134 128 133 144 184 191 349 144 189 259 260 285 256 239 238 238 241 246 238 228 229 230 234 237 237 236 233 231 230 230 230 230 233 234 235 236 235 236 237 237 238 237 237 236 236 237 238 239 239 239 242 244 245 246 247 248 250 251 250 249 249 249 248 248 248 247 246 246 245 246 248 251 253 252 250 249 250 253 256 257 255 252 248 244 245 247 248 249 248
145 132 111 49 51 99 49 129 152 132 122 119 154 211 310 111 184 240 234 283 299 232 229 231 232 236 240 233 228 229 233 236 238 237 235 235 235 235 235 234 239 239 240 243 242 241 240 240 242 242 242 240 239 240 241 241 241 241 243 245 247 248 248 249 250 251 252 251 251 250 250 250 250 250 248 246 245 244 247 252 256 258 256 254 253 256 257 257 255 255 251 245 243 242 244 247 250
130 127 127 352 11 30 356 37 171 154 122 128 103 348 298 228 228 239 229 236 264 236 223 227 229 233 237 237 233 231 234 236 238 240 240 240 241 242 242 243 246 246 249 253 250 247 247 246 245 246 246 245 244 243 244 245 245 244 244 245 248 249 249 250 251 253 254 254 253 252 252 251 250 252 252 251 247 244 246 250 255 259 260 259 259 258 257 258 256 256 256 251 245 242 241 244 249
124 95 123 14 9 346 323 6 189 159 140 165 121 278 279 262 245 237 228 230 238 241 226 223 227 232 236 239 240 241 242 242 244 247 248 247 246 245 245 245 246 248 252 252 252 253 253 252 252 251 250 250 249 247 246 247 249 249 248 247 248 250 251 251 252 253 256 258 258 256 254 253 252 253 256 258 254 247 244 247 253 256 258 258 260 262 262 261 256 255 263 263 255 245 241 243 247
110 67 71 61 123 263 307 346 170 149 178 196 129 216 264 271 270 243 241 246 246 247 237 227 229 234 239 242 243 246 247 248 252 254 253 253 253 251 250 248 247 249 251 251 254 256 256 256 257 256 255 255 255 253 251 249 250 251 252 251 250 251 252 253 253 253 254 256 259 261 260 257 255 254 255 259 260 256 249 247 249 254 257 256 255 260 263 261 258 254 259 266 264 251 240 239 242
40 109 306 344 166 255 311 348 155 153 195 154 124 219 271 271 279 307 257 254 245 249 248 243 244 244 245 245 245 248 250 251 255 255 254 254 254 254 253 251 250 250 252 254 256 257 257 258 258 259 259 259 259 259 258 255 253 254 254 254 253 254 255 255 256 255 254 254 255 259 262 263 262 259 258 258 258 259 260 255 251 253 257 257 256 258 256 252 255 254 250 258 267 261 246 238 238
1 110 193 255 176 264 313 340 327 96 148 24 108 222 264 289 283 214 84 356 290 266 262 251 251 252 250 247 246 249 251 250 251 251 252 254 254 256 256 256 254 253 254 256 257 258 259 259 260 261 261 263 263 262 262 260 258 258 258 257 255 255 257 258 259 257 256 255 254 254 257 261 262 261 262 263 257 256 265 264 255 258 259 255 257 260 255 248 251 254 247 247 261 264 254 243 241
294 50 122 215 192 205 281 292 323 26 108 256 14 239 247 276 290 267 259 292 302 294 285 277 270 264 257 250 247 247 250 251 248 247 250 254 256 257 258 259 258 258 257 257 257 258 259 260 260 260 261 263 263 263 263 262 260 258 259 260 259 257 257 258 259 259 259 259 260 260 260 259 262 263 259 261 258 256 264 262 256 268 270 259 257 260 259 253 254 259 250 245 255 261 256 246 244
187 175 143 210 207 204 244 247 284 18 68 222 324 279 264 275 286 279 274 280 285 284 283 283 279 272 266 259 255 255 257 257 253 252 255 255 255 255 256 257 258 259 259 258 258 258 258 258 258 258 258 258 260 261 261 261 260 257 257 258 259 258 256 255 255 257 258 258 260 263 266 265 265 269 268 265 262 257 260 257 254 266 269 257 250 248 255 258 253 253 251 248 254 256 254 247 243
170 175 147 161 178 227 241 242 271 30 112 237 238 244 272 279 285 284 280 281 281 281 282 280 277 272 266 262 259 259 260 260 259 260 261 259 258 256 255 254 255 255 255 256 256 255 255 255 256 256 256 256 256 257 256 256 256 256 255 254 255 255 255 255 253 253 254 252 251 256 263 265 258 259 266 268 268 265 261 258 255 260 260 252 248 249 257 265 255 246 248 251 253 253 249 244 242
139 132 115 148 171 242 252 262 302 35 140 251 253 258 277 274 275 278 280 287 286 278 277 274 271 267 264 263 262 262 261 262 264 266 266 265 265 262 259 255 253 253 252 254 253 253 252 251 253 254 255 255 255 255 255 255 255 255 256 256 258 259 257 256 255 255 255 253 250 248 250 255 254 250 252 257 263 266 262 259 260 261 258 252 255 262 263 267 259 247 249 251 253 254 247 243 242
100 132 135 147 187 231 255 270 317 6 130 266 358 326 277 266 270 272 275 283 273 266 265 266 267 266 265 264 264 264 263 264 266 268 269 271 272 269 265 261 258 258 257 256 255 253 251 249 249 251 253 254 255 257 258 258 260 261 262 263 265 266 264 262 262 261 261 260 258 254 248 250 257 257 255 254 257 260 256 259 266 262 258 257 263 265 259 260 259 252 252 251 252 256 249 245 246
88 118 132 155 209 233 292 315 332 10 41 268 347 336 278 265 265 265 265 262 262 263 261 263 267 267 267 266 266 266 266 266 267 269 272 274 274 271 267 265 264 263 260 257 255 253 251 250 249 249 251 254 257 260 261 263 265 266 266 267 267 267 267 266 266 266 265 264 262 263 260 257 257 254 255 255 251 258 261 264 270 262 255 262 268 267 260 254 251 252 257 253 250 256 250 245 248
93 109 134 179 233 168 217 285 329 8 54 276 295 299 281 280 285 276 267 260 265 268 264 263 263 264 267 268 268 268 266 266 268 273 277 273 267 261 260 261 259 258 255 253 250 249 249 249 250 249 250 253 257 260 263 266 267 267 266 266 266 265 265 265 264 263 263 265 264 264 265 264 258 249 248 249 248 256 261 259 262 257 253 260 264 267 268 262 255 258 263 256 251 254 250 246 249
115 144 144 162 196 176 191 232 352 3 19 26 5 315 291 308 319 290 289 287 276 278 273 267 263 262 267 269 267 265 266 269 276 285 283 253 239 236 243 246 248 249 248 247 244 242 243 244 246 248 249 252 255 259 262 265 266 266 266 265 265 263 263 263 262 264 265 267 269 270 270 268 267 261 253 249 249 253 256 254 256 255 254 258 260 262 268 267 262 263 263 258 257 259 254 249 251
236 218 176 170 174 164 146 95 81 40 359 357 25 349 289 314 313 271 306 341 307 304 294 282 283 279 274 272 269 267 268 270 278 286 255 184 219 232 236 236 239 240 236 235 233 231 230 232 235 239 244 247 251 255 259 263 265 267 267 266 266 266 267 267 267 272 274 275 277 277 276 272 270 270 263 256 256 255 256 259 261 262 261 259 260 263 265 263 261 261 259 257 262 265 257 250 253
201 232 176 148 133 131 132 118 96 101 241 324 48 120 265 311 301 269 318 338 309 312 308 300 309 306 286 276 272 269 270 273 276 267 240 224 231 234 239 237 232 227 220 217 213 212 214 218 224 228 234 238 244 250 254 259 262 265 268 269 271 273 272 274 277 279 279 278 278 276 274 273 270 270 268 266 266 262 257 257 259 263 265 260 257 260 263 264 265 266 265 263 266 267 259 253 255
206 233 131 124 121 133 142 110 94 191 234 330 14 110 230 294 273 274 332 332 307 315 313 314 331 330 305 283 274 267 259 259 248 209 186 172 163 166 204 216 211 206 203 200 198 202 206 210 217 221 228 234 238 245 250 255 260 263 267 269 271 273 274 278 280 279 277 276 275 273 272 272 270 269 268 267 267 265 261 259 257 257 259 257 257 260 263 266 266 265 266 266 266 264 259 257 257
239 210 114 120 123 124 118 94 91 13 359 312 317 50 198 269 275 304 343 310 295 309 299 306 334 350 359 354 308 238 175 143 131 132 125 116 112 105 104 106 107 119 135 147 164 179 192 203 214 223 234 244 248 253 255 256 260 262 264 266 267 270 273 276 277 276 276 275 273 273 272 271 270 269 268 267 266 265 264 263 260 256 256 257 261 265 267 266 262 261 264 266 265 262 257 256 255
174 144 94 79 73 78 80 88 100 48 30 244 268 354 182 265 287 312 0 267 262 281 280 295 339 17 45 62 76 97 108 107 109 113 112 107 101 99 98 97 96 97 98 98 97 97 90 80 46 350 325 309 297 288 281 275 271 267 266 267 269 271 272 273 275 274 273 274 274 274 274 274 273 272 271 270 269 268 266 264 262 258 256 256 257 261 263 261 257 259 266 269 267 263 259 256 256
142 116 72 60 36 36 49 55 83 65 319 252 257 308 89 267 284 269 232 225 214 235 301 311 351 36 52 62 77 89 95 97 101 105 108 106 102 102 101 99 98 94 92 88 80 73 61 47 30 8 350 331 317 305 298 293 286 281 279 277 275 276 277 275 274 274 274 274 275 276 276 276 275 274 273 272 270 268 267 265 263 260 256 253 252 253 255 257 258 262 267 268 264 260 258 257 261
115 89 90 82 6 10 26 2 39 98 254 261 271 297 152 211 264 255 252 261 226 205 266 288 319 8 35 53 70 85 94 96 96 101 107 107 104 104 103 101 99 94 90 86 78 73 67 55 43 25 5 342 322 309 302 297 292 291 291 288 286 284 283 279 276 275 275 274 274 275 276 275 275 275 274 273 271 270 269 267 266 265 263 260 259 257 256 258 260 262 263 266 264 258 256 261 266
72 98 109 95 9 11 359 312 349 210 240 271 285 270 195 229 253 260 264 263 242 234 235 246 286 315 350 29 58 83 99 103 104 110 113 111 109 107 105 103 100 96 92 88 82 76 71 64 56 46 34 19 358 337 319 303 294 289 287 285 286 286 282 279 277 276 274 273 273 273 274 275 275 275 274 275 276 275 272 271 269 268 269 268 264 259 258 260 262 262 262 263 263 259 260 266 270
127 138 132 129 128 105 255 263 287 257 256 297 286 267 261 263 264 252 248 245 234 245 248 257 286 303 313 322 357 100 105 104 112 120 120 117 114 113 110 105 99 94 87 80 74 67 63 57 51 45 36 26 14 3 349 330 309 290 278 274 275 277 278 278 277 275 273 271 271 271 272 273 273 274 275 275 276 274 272 272 272 270 270 269 265 261 259 259 259 261 263 263 263 262 264 267 270
167 160 130 145 157 153 204 217 205 234 270 308 297 273 195 203 268 251 247 261 257 248 253 260 274 296 310 315 286 153 123 105 118 124 120 118 118 116 111 101 92 84 74 65 59 55 52 47 42 36 28 19 10 4 359 354 343 319 293 281 276 276 278 278 275 273 273 272 270 269 268 269 271 273 274 274 274 273 273 273 272 271 270 269 267 265 262 260 258 258 259 260 261 262 263 265 267
230 123 108 161 183 140 132 179 174 170 322 307 267 242 212 206 284 277 262 280 273 254 251 253 262 287 298 294 170 157 144 124 125 124 120 121 119 113 103 93 84 72 57 47 45 46 43 39 34 26 18 11 4 358 354 353 352 346 331 310 294 286 283 281 278 275 272 269 265 262 261 263 266 269 272 275 276 276 275 274 273 273 272 271 270 268 266 263 261 259 258 257 257 258 260 263 264
166 123 170 214 167 114 110 190 69 78 203 267 218 248 289 322 292 295 312 293 291 279 243 233 247 290 259 192 140 139 138 127 124 123 121 120 112 101 90 81 71 58 44 37 38 37 34 31 24 16 11 6 1 354 347 343 343 343 337 323 306 293 287 283 278 274 268 262 256 255 257 261 265 269 272 274 276 278 279 279 278 277 275 274 273 272 271 269 266 264 262 260 258 255 256 259 261
124 174 203 190 116 95 108 158 7 44 235 276 273 232 285 327 266 316 339 280 276 274 230 195 187 111 124 132 123 125 126 121 119 117 114 107 96 85 70 57 51 46 40 34 30 25 20 13 4 1 359 360 357 347 338 331 329 330 328 322 312 297 287 281 276 272 268 262 257 256 259 262 266 270 272 273 275 278 280 281 283 284 283 282 281 280 279 277 276 273 270 266 261 256 254 256 258
115 170 164 121 134 156 95 136 166 128 232 279 300 267 253 203 221 297 292 229 244 248 217 113 167 136 121 122 123 123 120 115 110 104 95 82 69 59 48 42 41 38 30 22 15 6 358 348 339 334 333 341 344 333 326 320 317 319 319 320 316 304 291 280 273 271 269 266 265 265 265 266 270 272 273 275 277 278 280 281 283 285 285 286 286 287 287 286 285 284 280 273 265 258 256 257 258
55 109 117 84 128 161 160 151 165 176 196 249 310 321 259 227 218 214 217 218 226 220 179 178 184 149 128 124 122 119 114 107 99 87 71 58 51 44 37 33 26 21 12 2 354 347 343 337 331 325 317 314 314 312 312 311 312 315 317 319 319 313 304 290 280 275 272 272 274 276 276 277 279 279 281 283 284 285 286 287 287 287 286 287 287 288 288 289 289 288 287 281 271 260 255 255 257
104 124 161 176 77 118 158 107 118 139 161 188 270 297 271 250 207 197 216 224 224 211 186 187 177 148 129 125 121 115 107 95 80 65 54 49 45 36 28 21 10 0 349 341 338 335 335 332 329 329 322 314 311 311 313 314 315 316 317 319 320 319 314 306 296 288 282 281 281 283 285 286 285 286 289 291 292 293 293 293 292 291 291 291 290 290 290 289 289 289 289 286 277 265 257 255 255
162 170 181 174 146 122 147 245 240 123 146 168 176 263 272 254 205 206 224 223 226 212 180 169 166 149 133 125 121 113 97 78 63 59 55 49 42 33 25 15 359 343 327 322 323 324 327 329 331 332 328 322 322 322 320 317 317 317 317 319 320 318 316 314 310 301 293 288 285 285 285 285 286 288 290 291 292 293 292 292 292 291 291 291 291 292 292 292 292 292 291 288 281 270 263 259 257